GW3202 Weather Reports


time (UTC)temp
F
wind
direction
speed
knots
gust
knots
rain 1hr
in
rain 24hr
in
rain mn
in
humidity
%
barometer
mb
20260906064003 67 170 0.9 5.2 0.00 0.00 0.00 94 1020.0
20260906063003 67 158 2.6 2.6 0.00 0.00 0.00 94 1019.8
20260906061005 67 112 0.0 2.6 0.00 0.00 0.00 94 1020.0
20260906060004 67 118 0.0 5.2 0.00 0.00 0.00 94 1020.1
20260906054003 68 254 0.9 6.1 0.00 0.00 0.00 93 1020.1
20260906052003 68 154 0.9 2.6 0.00 0.00 0.00 93 1020.2
20260906050003 69 233 0.9 4.3 0.00 0.00 0.00 92 1020.3
20260906045003 69 103 1.7 6.1 0.00 0.00 0.00 92 1020.3
20260906044003 69 150 2.6 4.3 0.00 0.00 0.00 92 1020.4
20260906043003 69 198 1.7 6.1 0.00 0.00 0.00 92 1020.4
20260906042003 69 122 1.7 6.1 0.00 0.00 0.00 93 1020.5
20260906041003 69 203 2.6 8.7 0.00 0.00 0.00 93 1020.4
20260906040004 69 135 1.7 7.0 0.00 0.00 0.00 93 1020.5
20260906035004 69 157 4.3 11.3 0.00 0.00 0.00 93 1020.4
20260906034003 69 143 3.5 10.4 0.00 0.00 0.00 93 1020.1
20260906033003 69 156 5.2 13.0 0.00 0.00 0.00 93 1019.8
20260906032003 69 166 2.6 13.0 0.00 0.00 0.00 93 1019.8
20260906030003 69 139 5.2 14.8 0.00 0.00 0.00 93 1019.7
20260906025003 69 157 6.1 14.8 0.00 0.00 0.00 93 1019.3
20260906024003 69 161 6.1 14.8 0.00 0.00 0.00 92 1019.2
20260906023003 70 118 2.6 13.9 0.00 0.00 0.00 92 1019.3
20260906022003 70 134 8.7 18.2 0.00 0.00 0.00 92 1019.2
20260906021006 70 178 7.8 18.2 0.00 0.00 0.00 93 1018.9
20260906014004 70 138 12.2 19.1 0.00 0.00 0.00 92 1018.3
20260906013003 70 144 5.2 17.4 0.00 0.00 0.00 90 1018.1
20260906012003 71 131 7.8 17.4 0.00 0.00 0.00 90 1018.2
20260906011004 71 126 3.5 17.4 0.00 0.00 0.00 90 1018.2
20260906010004 72 133 5.2 13.9 0.00 0.00 0.00 88 1018.0
20260906005004 72 149 6.1 14.8 0.00 0.00 0.00 87 1018.0
20260906004003 72 151 4.3 13.9 0.00 0.00 0.00 86 1017.6
20260906003003 73 151 2.6 12.2 0.00 0.00 0.00 85 1017.7
20260906001004 74 184 3.5 17.4 0.00 0.00 0.00 84 1017.4
20260906000003 73 195 6.1 17.4 0.00 0.00 0.00 84 1017.5
20260905235004 74 218 8.7 14.8 0.00 0.00 0.00 84 1017.2
20260905233003 74 149 4.3 7.8 0.00 0.00 0.00 82 1017.5
20260905232003 73 278 0.0 2.6 0.00 0.00 0.00 74 1017.5
20260905231003 73 105 0.9 4.3 0.00 0.00 0.00 75 1017.5
20260905230005 72 92 0.0 4.3 0.00 0.00 0.00 75 1017.8
20260905224004 72 272 0.0 5.2 0.00 0.00 0.00 74 1017.8
20260905223003 72 316 2.6 7.8 0.00 0.00 0.00 76 1017.9
20260905222005 74 284 0.0 2.6 0.00 0.00 0.00 76 1017.6
20260905221003 73 47 0.9 7.8 0.00 0.00 0.00 77 1017.6
20260905220003 74 37 2.6 4.3 0.00 0.00 0.00 76 1017.6
20260905215003 74 74 0.9 7.8 0.00 0.00 0.00 76 1017.8
20260905214004 74 7 2.6 7.8 0.00 0.00 0.00 76 1018.3
20260905213005 73 12 2.6 11.3 0.00 0.00 0.00 77 1018.4
20260905212004 76 145 1.7 12.2 0.00 0.00 0.00 78 1017.9
20260905211003 76 159 4.3 13.0 0.00 0.00 0.00 79 1017.6
20260905204003 78 163 5.2 13.9 0.00 0.00 0.00 75 1017.8
20260905203004 79 157 10.4 13.9 0.00 0.00 0.00 72 1018.1
20260905201004 80 150 6.1 14.8 0.00 0.00 0.00 68 1018.2
20260905200004 79 207 2.6 13.0 0.00 0.00 0.00 68 1018.5
20260905194004 80 156 1.7 7.0 0.00 0.00 0.00 67 1018.7
20260905193005 79 319 3.5 4.3 0.00 0.00 0.00 65 1018.8
20260905192004 76 180 0.9 6.1 0.00 0.00 0.00 67 1018.9
20260905191004 76 195 2.6 5.2 0.00 0.00 0.00 71 1019.2
20260905190004 78 253 4.3 7.0 0.00 0.00 0.00 72 1019.5
20260905185004 76 165 2.6 7.0 0.00 0.00 0.00 75 1019.8
20260905184003 77 176 1.7 7.0 0.00 0.00 0.00 74 1019.9
20260905183003 77 189 0.9 6.1 0.00 0.00 0.00 70 1019.9
20260905182004 77 292 2.6 5.2 0.00 0.00 0.00 70 1020.0
20260905181004 76 239 1.7 6.1 0.00 0.00 0.00 71 1020.3
20260905180003 76 194 2.6 7.8 0.00 0.00 0.00 73 1020.2
20260905175004 76 218 1.7 4.3 0.00 0.00 0.00 72 1020.4
20260905174004 76 233 0.9 7.8 0.00 0.00 0.00 73 1020.6
20260905173004 74 249 1.7 4.3 0.00 0.00 0.00 72 1020.6
20260905172003 73 293 1.7 6.1 0.00 0.00 0.00 73 1020.8
20260905171003 73 218 2.6 5.2 0.00 0.00 0.00 74 1020.6
20260905170004 71 317 0.0 4.3 0.00 0.00 0.00 76 1020.9
20260905165003 72 69 1.7 6.1 0.00 0.00 0.00 79 1021.0
20260905164003 73 280 3.5 5.2 0.00 0.00 0.00 76 1021.1
20260905163004 71 117 1.7 5.2 0.00 0.00 0.00 77 1021.2
20260905162003 71 150 0.9 4.3 0.00 0.00 0.00 76 1021.2
20260905161004 72 12 0.9 2.6 0.00 0.00 0.00 77 1021.5
20260905160003 68 171 0.9 5.2 0.00 0.00 0.00 81 1021.5
20260905155004 69 339 1.7 5.2 0.00 0.00 0.00 83 1021.4
20260905154003 69 334 3.5 5.2 0.00 0.00 0.00 86 1021.5
20260905152004 69 26 1.7 5.2 0.00 0.00 0.00 85 1021.4
20260905150004 69 2 1.7 2.6 0.00 0.00 0.00 84 1021.1
20260905145004 68 1 2.6 4.3 0.00 0.00 0.00 84 1021.0
20260905144003 69 87 0.9 5.2 0.00 0.00 0.00 86 1021.2
20260905143003 67 82 0.9 4.3 0.00 0.00 0.00 87 1021.1
20260905142005 67 52 0.0 2.6 0.00 0.00 0.00 88 1021.0
20260905141003 66 52 0.9 2.6 0.00 0.00 0.00 90 1020.7
20260905140004 66 85 0.9 2.6 0.00 0.00 0.00 92 1020.9
20260905134004 65 11 0.9 1.7 0.00 0.00 0.00 94 1020.8
20260905133003 65 145 0.0 1.7 0.00 0.00 0.00 95 1020.7
20260905132004 64 270 0.0 1.7 0.00 0.00 0.00 95 1020.7
20260905131004 64 286 0.0 2.6 0.00 0.00 0.00 95 1020.6
20260905125003 64 316 0.0 4.3 0.00 0.00 0.00 94 1020.3
20260905124004 65 342 1.7 2.6 0.00 0.00 0.00 93 1020.5
20260905123004 65 36 1.7 1.7 0.00 0.00 0.00 94 1020.5
20260905122004 65 90 0.9 1.7 0.00 0.00 0.00 94 1020.4
20260905121004 65 136 0.9 6.1 0.00 0.00 0.00 94 1020.4
20260905120003 65 78 1.7 4.3 0.00 0.00 0.00 94 1020.3
20260905114004 64 74 1.7 2.6 0.00 0.00 0.00 94 1020.0
20260905113004 64 92 0.9 2.6 0.00 0.00 0.00 94 1019.9
20260905112004 64 70 0.9 2.6 0.00 0.00 0.00 94 1019.9
20260905111006 64 53 1.7 2.6 0.00 0.00 0.00 95 1020.0
20260905110004 64 47 0.9 2.6 0.00 0.00 0.00 95 1020.1
20260905103005 64 5 0.9 2.6 0.00 0.00 0.00 96 1020.0
20260905102003 64 342 1.7 2.6 0.00 0.00 0.00 96 1020.3
20260905101004 64 4 0.9 4.3 0.00 0.00 0.00 96 1020.3
20260905100005 64 279 1.7 2.6 0.00 0.00 0.00 95 1020.2
20260905095004 65 341 1.7 2.6 0.00 0.00 0.00 95 1020.4
20260905094004 65 34 0.9 2.6 0.00 0.00 0.00 95 1020.0
20260905091004 65 109 0.0 1.7 0.00 0.00 0.00 94 1020.4
20260905090004 65 112 0.0 2.6 0.00 0.00 0.00 94 1020.1
20260905085004 65 91 0.9 2.6 0.00 0.00 0.00 94 1020.0
20260905084004 65 98 0.9 2.6 0.00 0.00 0.00 94 1020.1
20260905083004 64 72 1.7 2.6 0.00 0.00 0.00 94 1020.0
20260905082004 65 113 0.9 2.6 0.00 0.00 0.00 94 1020.1
20260905081004 65 83 1.7 1.7 0.00 0.00 0.00 95 1020.0
20260905080004 65 105 0.9 2.6 0.00 0.00 0.00 95 1020.1
20260905075004 65 148 0.0 2.6 0.00 0.00 0.00 95 1020.2
20260905074005 65 45 0.0 2.6 0.00 0.00 0.00 95 1020.2
20260905073004 65 298 0.9 2.6 0.00 0.00 0.00 94 1020.1
20260905072004 66 290 0.9 2.6 0.00 0.00 0.00 92 1020.1